FLOCK 2K-19 (42886 NORAD) Tracking and Keplerian Element Data

This shows tracking and keplerian element data for the satellite.

Feedback or suggestion? Click here.




ElementValue
Catalog42886
NameFLOCK 2K-19
Epoch Orbit3282
Epoch Day45.62111906
Epoch Year2018
RAAN308.4677
Inclination96.9932
Eccentricity0.0012557
Argument of Perigee176.7252
Mean Anonmoly183.4077
Mean Motion15.35588336
Decay Rate7.159E-05
L11 42886U 17042BP 18045.62111906 .00007159 00000-0 20861-3 0 9998
L22 42886 96.9932 308.4677 0012557 176.7252 183.4077 15.35588336 32825

Live tracking and technical data element details for FLOCK 2K-19 (NORAD 42886). FLOCK 2K-19 can be tracked NOW for your location showing map with azimuth and elevation plus other details from your city location.

Track the satellite on the map from your city or location and see movement details for azimuth, elevation, latitude, longitude, range, height, and movement on the map or in text.







IsCatalogInMostPopularTable: catalog: 42886, numindb: 153
Update: records affected: 1



GetName: 42886 FLOCK 2K-19

Hit Count: updated at: Tue, 18 Dec 2018 21:42:50 GMT